Weather History for Anaktuvuk Pass, AK

Change the Weather History Date:

Wednesday, February 20, 2013

  Actual Average Record
Temperature  
Mean Temperature -36 °F -  
Max Temperature -29 °F -1 °F 30 °F (2008)
Min Temperature -43 °F -12 °F -43 °F (2013)
Degree Days  
Heating Degree Days 101    
Moisture  
Dew Point -    
Average Humidity    
Maximum Humidity    
Minimum Humidity    
Precipitation  
Precipitation 0.00 in - - ()
Sea Level Pressure  
Sea Level Pressure 29.65 in    
Wind  
Wind Speed 11 mph (NNE)    
Max Wind Speed 20 mph    
Max Gust Speed 24 mph    
Visibility 4 miles    
Events      
Averages and records for this station are not official NWS values.
T = Trace of Precipitation, MM = Missing Value Source: NWS Daily Summary

Daily Weather History Graph

Daily Weather History Graph

Search for Another Location

Airport:

Trip Planner

Search our weather history database for the weather conditions in past years. The results will help you decide how hot, cold, wet, or windy it might be!

Date:

Astronomy

Feb. 20, 2013 Rise Set
Actual Time 9:02 AM AKST 5:40 PM AKST
Civil Twilight 8:03 AM AKST 6:39 PM AKST
Nautical Twilight 6:58 AM AKST 7:44 PM AKST
Astronomical Twilight 5:53 AM AKST 8:50 PM AKST
Moon 11:08 AM AKST (2/20) 7:33 AM AKST (2/20)
Length of Visible Light 10h 36m
Length of Day
8h 37m
Waxing Gibbous, 77% of the Moon is Illuminated
Feb 20
Waxing Gibbous
Feb 25
Full
Mar 4
Last Quarter
Mar 11
New
Mar 19
First Quarter

Hourly Weather History & Observations

Time (AKST) Temp. Windchill Dew Point Humidity Pressure Visibility Wind Dir Wind Speed Gust Speed Precip Events Conditions
12:16 AM -32.8 °F -54.1 °F - N/A% 29.75 in 8.0 mi NNE 8.1 mph - N/A   Clear
12:36 AM -32.8 °F -55.6 °F - N/A% 29.74 in 7.0 mi North 9.2 mph - N/A   Clear
12:56 AM -34.6 °F -61.6 °F - N/A% 29.74 in 9.0 mi NNE 12.7 mph - N/A   Clear
1:16 AM -32.8 °F -62.3 °F - N/A% 29.72 in 7.0 mi NNE 16.1 mph - N/A   Clear
1:36 AM -32.8 °F -60.4 °F - N/A% 29.72 in 10.0 mi NNE 13.8 mph - N/A   Clear
1:56 AM -34.6 °F -60.5 °F - N/A% 29.72 in 10.0 mi NNE 11.5 mph - N/A   Clear
2:16 AM -32.8 °F -58.2 °F - N/A% 29.71 in 5.0 mi NNE 11.5 mph - N/A   Clear
2:36 AM -32.8 °F -60.4 °F - N/A% 29.70 in 7.0 mi NNE 13.8 mph - N/A   Clear
2:56 AM -32.8 °F -59.3 °F - N/A% 29.70 in 9.0 mi NNE 12.7 mph - N/A   Clear
3:16 AM -34.6 °F -60.5 °F - N/A% 29.70 in 9.0 mi North 11.5 mph - N/A   Clear
3:36 AM -34.6 °F -59.2 °F - N/A% 29.70 in 8.0 mi North 10.4 mph - N/A   Clear
3:56 AM -36.4 °F -63.9 °F - N/A% 29.70 in 8.0 mi North 12.7 mph - N/A   Clear
4:16 AM -36.4 °F -62.7 °F - N/A% 29.69 in 5.0 mi North 11.5 mph - N/A   Clear
4:36 AM -34.6 °F -61.6 °F - N/A% 29.69 in 8.0 mi NNE 12.7 mph - N/A   Clear
4:56 AM -34.6 °F -60.5 °F - N/A% 29.69 in 9.0 mi NNE 11.5 mph - N/A   Clear
5:16 AM -32.8 °F -58.2 °F - N/A% 29.68 in 10.0 mi North 11.5 mph - N/A   Clear
5:36 AM -34.6 °F -62.7 °F - N/A% 29.68 in 10.0 mi NNE 13.8 mph - N/A   Clear
5:56 AM -34.6 °F -63.7 °F - N/A% 29.68 in 9.0 mi NNE 15.0 mph - N/A   Clear
6:16 AM -29.2 °F -60.0 °F - N/A% 29.68 in 3.0 mi NE 19.6 mph 24.2 mph N/A   Partly Cloudy
6:36 AM -32.8 °F -64.0 °F - N/A% 29.68 in 2.0 mi NNE 18.4 mph - N/A   Mostly Cloudy
6:56 AM -32.8 °F -63.1 °F - N/A% 29.68 in 2.0 mi NNE 17.3 mph - N/A   Overcast
7:16 AM -31.0 °F -59.1 °F - N/A% 29.68 in 4.0 mi North 15.0 mph - N/A   Partly Cloudy
7:36 AM -31.0 °F -58.1 °F - N/A% 29.67 in 3.0 mi North 13.8 mph - N/A   Partly Cloudy
7:56 AM -32.8 °F -59.3 °F - N/A% 29.67 in 3.0 mi North 12.7 mph 19.6 mph N/A   Scattered Clouds
8:16 AM -32.8 °F -55.6 °F - N/A% 29.67 in 2.0 mi North 9.2 mph - N/A   Overcast
8:36 AM -34.6 °F -56.3 °F - N/A% 29.66 in 1.0 mi North 8.1 mph - N/A   Overcast
8:56 AM -34.6 °F -59.2 °F - N/A% 29.66 in 0.8 mi NNE 10.4 mph - N/A   Overcast
9:16 AM -34.6 °F -60.5 °F - N/A% 29.65 in 0.8 mi NE 11.5 mph - N/A   Overcast
9:36 AM -36.4 °F -65.0 °F - N/A% 29.64 in 1.0 mi NNE 13.8 mph - N/A   Overcast
9:56 AM -36.4 °F -62.7 °F - N/A% 29.65 in 2.0 mi NNE 11.5 mph - N/A   Scattered Clouds
10:16 AM -36.4 °F -63.9 °F - N/A% 29.65 in 3.0 mi NE 12.7 mph - N/A   Clear
10:36 AM -36.4 °F -62.7 °F - N/A% 29.65 in 4.0 mi North 11.5 mph - N/A   Clear
10:56 AM -36.4 °F -63.9 °F - N/A% 29.65 in 3.0 mi North 12.7 mph - N/A   Clear
11:16 AM -36.4 °F -58.5 °F - N/A% 29.66 in 2.5 mi North 8.1 mph - N/A   Clear
11:36 AM -36.4 °F -58.5 °F - N/A% 29.66 in 2.0 mi North 8.1 mph - N/A   Clear
11:56 AM -36.4 °F -62.7 °F - N/A% 29.66 in 2.0 mi North 11.5 mph - N/A   Clear
12:16 PM -38.2 °F -65.0 °F - N/A% 29.65 in 1.2 mi North 11.5 mph - N/A   Overcast
12:36 PM -36.4 °F -62.7 °F - N/A% 29.65 in 1.0 mi North 11.5 mph - N/A   Overcast
12:56 PM -36.4 °F -58.5 °F - N/A% 29.64 in 1.0 mi NNE 8.1 mph - N/A   Overcast
1:16 PM -36.4 °F -61.5 °F - N/A% 29.63 in 2.0 mi NNE 10.4 mph - N/A   Mostly Cloudy
1:36 PM -36.4 °F -62.7 °F - N/A% 29.63 in 3.0 mi North 11.5 mph - N/A   Clear
1:56 PM -36.4 °F -62.7 °F - N/A% 29.62 in 4.0 mi North 11.5 mph - N/A   Clear
2:16 PM -36.4 °F -62.7 °F - N/A% 29.62 in 1.8 mi NNE 11.5 mph - N/A   Scattered Clouds
2:36 PM -36.4 °F -62.7 °F - N/A% 29.61 in 2.0 mi NNE 11.5 mph - N/A   Mostly Cloudy
2:56 PM -36.4 °F -62.7 °F - N/A% 29.61 in 2.0 mi North 11.5 mph - N/A   Scattered Clouds
3:16 PM -36.4 °F -60.1 °F - N/A% 29.61 in 1.2 mi North 9.2 mph - N/A   Mostly Cloudy
3:36 PM -36.4 °F -61.5 °F - N/A% 29.61 in 1.2 mi NNE 10.4 mph - N/A   Overcast
3:56 PM -36.4 °F -63.9 °F - N/A% 29.61 in 1.2 mi NNE 12.7 mph 16.1 mph N/A   Overcast
4:16 PM -36.4 °F -60.1 °F - N/A% 29.62 in 1.0 mi NNE 9.2 mph - N/A   Overcast
4:36 PM -38.2 °F -63.7 °F - N/A% 29.61 in 1.5 mi NNE 10.4 mph - N/A   Overcast
4:56 PM -38.2 °F -67.3 °F - N/A% 29.61 in 1.2 mi North 13.8 mph - N/A   Overcast
5:16 PM -38.2 °F -68.3 °F - N/A% 29.61 in 1.0 mi NNE 15.0 mph - N/A   Overcast
5:36 PM -38.2 °F -66.2 °F - N/A% 29.62 in 1.0 mi NNE 12.7 mph - N/A   Overcast
5:56 PM -41.8 °F -66.7 °F - N/A% 29.63 in 1.2 mi North 9.2 mph - N/A   Overcast
6:16 PM -41.8 °F -69.5 °F - N/A% 29.63 in 1.0 mi North 11.5 mph - N/A   Overcast
6:36 PM -41.8 °F -68.2 °F - N/A% 29.63 in 1.8 mi North 10.4 mph - N/A   Overcast
6:56 PM -41.8 °F -65.1 °F - N/A% 29.63 in 1.5 mi North 8.1 mph - N/A   Overcast
7:16 PM -41.8 °F -70.7 °F - N/A% 29.62 in 2.0 mi North 12.7 mph - N/A   Mostly Cloudy
7:36 PM -41.8 °F -68.2 °F - N/A% 29.62 in 4.0 mi North 10.4 mph - N/A   Partly Cloudy
7:56 PM -43.6 °F -68.9 °F - N/A% 29.63 in 1.8 mi North 9.2 mph - N/A   Mostly Cloudy
8:16 PM -43.6 °F -67.3 °F - N/A% 29.63 in 1.5 mi North 8.1 mph - N/A   Overcast
8:36 PM -43.6 °F -70.4 °F - N/A% 29.63 in 2.5 mi NNE 10.4 mph - N/A   Overcast
8:56 PM -43.6 °F -70.4 °F - N/A% 29.63 in 2.0 mi North 10.4 mph - N/A   Overcast
9:16 PM -43.6 °F -67.3 °F - N/A% 29.63 in 1.8 mi North 8.1 mph - N/A   Overcast
9:36 PM -43.6 °F -68.9 °F - N/A% 29.63 in 2.0 mi North 9.2 mph - N/A   Overcast
9:56 PM -43.6 °F -67.3 °F - N/A% 29.63 in 2.0 mi North 8.1 mph - N/A   Overcast
10:16 PM -43.6 °F -65.4 °F - N/A% 29.63 in 2.0 mi North 6.9 mph - N/A   Overcast
10:36 PM -43.6 °F -68.9 °F - N/A% 29.62 in 1.8 mi North 9.2 mph - N/A   Overcast
10:56 PM -43.6 °F -65.4 °F - N/A% 29.62 in 2.0 mi North 6.9 mph - N/A   Overcast
11:16 PM -43.6 °F -70.4 °F - N/A% 29.63 in 3.0 mi North 10.4 mph - N/A   Partly Cloudy
11:36 PM -43.6 °F -68.9 °F - N/A% 29.63 in 3.0 mi North 9.2 mph - N/A   Mostly Cloudy
11:56 PM -43.6 °F -68.9 °F - N/A% 29.63 in 2.5 mi North 9.2 mph - N/A   Overcast